Charlevoix, MI

8:29 PM EDT on May 20, 2018 (GMT -0400)
Charlevoix Municipal

Weather History for KCVX - October, 2013

Change the Weather History Date:

Friday, October 25, 2013

  Actual Average Record
Temperature  
Mean Temperature 42 °F -  
Max Temperature 45 °F 55 °F 78 °F (2012)
Min Temperature 39 °F 45 °F 32 °F (2002)
Degree Days  
Heating Degree Days 23    
Moisture  
Dew Point 32 °F    
Average Humidity 68    
Maximum Humidity 86    
Minimum Humidity 55    
Precipitation  
Precipitation 0.00 in - - ()
Sea Level Pressure  
Sea Level Pressure 30.12 in    
Wind  
Wind Speed 13 mph (West)    
Max Wind Speed 23 mph    
Max Gust Speed 32 mph    
Visibility 10 miles    
Events Rain    
Averages and records for this station are not official NWS values.
T = Trace of Precipitation, MM = Missing Value Source: NWS Daily Summary

Daily Weather History Graph

Daily Weather History Graph

Search for Another Location

Airport or City:

Astronomy

Oct. 25, 2013 Rise Set
Actual Time 8:10 AM EDT 6:38 PM EDT
Civil Twilight 7:40 AM EDT 7:08 PM EDT
Nautical Twilight 7:05 AM EDT 7:43 PM EDT
Astronomical Twilight 6:31 AM EDT 8:17 PM EDT
Moon 11:53 PM EDT (10/25) 1:55 PM EDT (10/25)
Length of Visible Light 11h 28m
Length of Day
10h 27m
Waning Gibbous, 62% of the Moon is Illuminated
Oct 25
Waning Gibbous
Oct 26
Last Quarter
Nov 3
New
Nov 10
First Quarter
Nov 17
Full

Hourly Weather History & Observations

Time (EDT) Temp. Windchill Dew Point Humidity Pressure Visibility Wind Dir Wind Speed Gust Speed Precip Events Conditions
12:15 AM 41.0 °F 33.9 °F 33.6 °F 75% 30.15 in 10.0 mi NW 12.7 mph 19.6 mph N/A   Overcast
12:34 AM 41.5 °F 34.2 °F 33.8 °F 74% 30.16 in 10.0 mi NNW 13.8 mph 21.9 mph N/A   Overcast
12:55 AM 41.0 °F 33.9 °F 34.5 °F 78% 30.16 in 10.0 mi NW 12.7 mph 18.4 mph N/A   Overcast
1:15 AM 41.0 °F 34.7 °F 34.5 °F 78% 30.16 in 10.0 mi NW 10.4 mph 17.3 mph N/A   Overcast
1:34 AM 40.5 °F 33.6 °F 33.8 °F 77% 30.17 in 10.0 mi NW 11.5 mph 19.6 mph N/A   Mostly Cloudy
1:55 AM 40.5 °F 32.5 °F 33.3 °F 75% 30.17 in 10.0 mi NNW 15.0 mph 23.0 mph N/A   Mostly Cloudy
2:14 AM 41.0 °F 34.3 °F 32.9 °F 73% 30.17 in 10.0 mi NW 11.5 mph 20.7 mph N/A   Overcast
2:34 AM 41.0 °F 34.3 °F 33.8 °F 76% 30.17 in 10.0 mi NNW 11.5 mph 17.3 mph N/A   Overcast
2:55 AM 40.3 °F 33.0 °F 33.4 °F 77% 30.18 in 10.0 mi NW 12.7 mph 21.9 mph N/A   Overcast
3:14 AM 40.1 °F 33.6 °F 33.4 °F 77% 30.18 in 10.0 mi NNW 10.4 mph 16.1 mph N/A   Overcast
3:34 AM 41.4 °F 34.0 °F 33.6 °F 74% 30.18 in 10.0 mi NW 13.8 mph 17.3 mph N/A   Overcast
3:55 AM 41.4 °F 33.6 °F 33.1 °F 72% 30.18 in 10.0 mi WNW 15.0 mph 21.9 mph N/A   Overcast
4:14 AM 41.2 °F 34.1 °F 33.4 °F 74% 30.18 in 10.0 mi NW 12.7 mph 18.4 mph N/A   Overcast
4:34 AM 41.0 °F 34.3 °F 33.1 °F 73% 30.19 in 10.0 mi WNW 11.5 mph - N/A   Overcast
4:55 AM 41.0 °F 33.9 °F 32.4 °F 71% 30.19 in 10.0 mi WNW 12.7 mph 18.4 mph N/A   Overcast
5:14 AM 41.0 °F 34.7 °F 31.6 °F 69% 30.19 in 10.0 mi NW 10.4 mph 18.4 mph N/A   Overcast
5:34 AM 40.6 °F 33.8 °F 32.0 °F 71% 30.20 in 10.0 mi WNW 11.5 mph 16.1 mph N/A   Mostly Cloudy
5:55 AM 40.6 °F 33.4 °F 31.8 °F 71% 30.20 in 10.0 mi WNW 12.7 mph - N/A   Mostly Cloudy
6:14 AM 40.3 °F 34.4 °F 31.3 °F 70% 30.21 in 10.0 mi WNW 9.2 mph 19.6 mph N/A   Mostly Cloudy
6:35 AM 40.5 °F 34.1 °F 31.1 °F 69% 30.22 in 10.0 mi WNW 10.4 mph - N/A   Mostly Cloudy
6:55 AM 40.3 °F 32.2 °F 30.7 °F 69% 30.22 in 10.0 mi WNW 15.0 mph 18.4 mph N/A   Scattered Clouds
7:14 AM 39.9 °F 33.4 °F 30.9 °F 70% 30.22 in 10.0 mi WNW 10.4 mph - N/A   Scattered Clouds
7:35 AM 40.3 °F 33.4 °F 29.7 °F 66% 30.22 in 10.0 mi West 11.5 mph 18.4 mph N/A   Scattered Clouds
7:54 AM 40.3 °F 34.4 °F 31.5 °F 71% 30.22 in 10.0 mi West 9.2 mph - N/A   Mostly Cloudy
8:14 AM 41.0 °F 34.7 °F 31.5 °F 69% 30.22 in 10.0 mi WNW 10.4 mph - N/A   Overcast
8:35 AM 40.8 °F 34.1 °F 30.6 °F 67% 30.23 in 10.0 mi WNW 11.5 mph 17.3 mph N/A   Scattered Clouds
8:54 AM 40.8 °F 35.6 °F 29.5 °F 64% 30.24 in 10.0 mi West 8.1 mph 16.1 mph N/A   Scattered Clouds
9:14 AM 41.9 °F 36.3 °F 30.7 °F 65% 30.24 in 10.0 mi WNW 9.2 mph - N/A   Scattered Clouds
9:34 AM 41.5 °F 34.6 °F 29.7 °F 63% 30.23 in 10.0 mi WNW 12.7 mph - N/A   Scattered Clouds
9:54 AM 42.8 °F 36.6 °F 30.0 °F 61% 30.23 in 10.0 mi West 11.5 mph - N/A   Scattered Clouds
10:15 AM 43.5 °F 38.3 °F 31.6 °F 63% 30.23 in 10.0 mi West 9.2 mph - N/A   Mostly Cloudy
10:34 AM 43.7 °F 38.1 °F 31.8 °F 63% 30.22 in 10.0 mi WNW 10.4 mph - N/A   Mostly Cloudy
10:54 AM 43.2 °F 37.4 °F 30.9 °F 62% 30.22 in 10.0 mi West 10.4 mph 16.1 mph N/A   Mostly Cloudy
11:15 AM 44.1 °F 38.1 °F 30.2 °F 58% 30.22 in 10.0 mi West 11.5 mph 16.1 mph N/A   Overcast
11:34 AM 41.9 °F 33.7 °F 32.5 °F 69% 30.22 in 10.0 mi WNW 17.3 mph 27.6 mph N/A   Overcast
11:54 AM 41.0 °F 35.8 °F 33.6 °F 75% 30.22 in 7.0 mi West 8.1 mph - N/A Rain Light Rain
12:15 PM 40.3 °F 33.9 °F 35.1 °F 82% 30.22 in 10.0 mi WSW 10.4 mph 17.3 mph N/A   Light Drizzle
12:34 PM 42.3 °F 33.8 °F 36.1 °F 79% 30.21 in 10.0 mi West 18.4 mph 23.0 mph N/A   Overcast
12:55 PM 44.1 °F 35.9 °F 34.0 °F 68% 30.20 in 10.0 mi West 19.6 mph 23.0 mph N/A   Overcast
1:15 PM 43.2 °F 35.0 °F 32.2 °F 65% 30.20 in 10.0 mi WSW 18.4 mph 26.5 mph N/A   Overcast
1:34 PM 43.7 °F 35.7 °F 32.0 °F 63% 30.19 in 10.0 mi West 18.4 mph 26.5 mph N/A   Overcast
1:55 PM 45.9 °F 38.5 °F 30.4 °F 55% 30.18 in 10.0 mi WSW 18.4 mph 25.3 mph N/A   Mostly Cloudy
2:15 PM 43.9 °F 36.8 °F 30.2 °F 59% 30.17 in 10.0 mi WSW 15.0 mph - N/A   Mostly Cloudy
2:34 PM 43.7 °F 37.3 °F 30.6 °F 60% 30.16 in 10.0 mi WSW 12.7 mph - N/A   Overcast
2:55 PM 43.2 °F 36.2 °F 29.1 °F 58% 30.15 in 10.0 mi SW 13.8 mph 25.3 mph N/A   Overcast
3:14 PM 43.2 °F 34.7 °F 28.9 °F 57% 30.14 in 10.0 mi SW 19.6 mph 25.3 mph N/A   Overcast
3:34 PM 43.2 °F 36.6 °F 28.6 °F 56% 30.14 in 10.0 mi WSW 12.7 mph 24.2 mph N/A   Overcast
3:55 PM 42.8 °F 35.1 °F 28.4 °F 57% 30.13 in 10.0 mi SW 16.1 mph 23.0 mph N/A   Overcast
4:14 PM 42.8 °F 36.2 °F 28.9 °F 58% 30.12 in 10.0 mi SW 12.7 mph 24.2 mph N/A   Overcast
4:34 PM 42.6 °F 35.9 °F 29.5 °F 60% 30.11 in 10.0 mi SW 12.7 mph 20.7 mph N/A   Overcast
4:54 PM 42.3 °F 35.1 °F 30.2 °F 62% 30.09 in 10.0 mi SW 13.8 mph 20.7 mph N/A   Overcast
5:14 PM 42.1 °F 37.1 °F 30.0 °F 62% 30.08 in 10.0 mi SSW 8.1 mph 21.9 mph N/A   Overcast
5:35 PM 42.1 °F 35.2 °F 29.5 °F 61% 30.06 in 10.0 mi SSW 12.7 mph 20.7 mph N/A   Overcast
5:54 PM 42.1 °F 34.9 °F 29.1 °F 60% 30.05 in 10.0 mi SSW 13.8 mph 20.7 mph N/A   Overcast
6:14 PM 41.9 °F 35.0 °F 30.0 °F 63% 30.04 in 10.0 mi SW 12.7 mph 20.7 mph N/A   Overcast
6:35 PM 41.9 °F 35.4 °F 30.2 °F 63% 30.03 in 10.0 mi SSW 11.5 mph 19.6 mph N/A   Overcast
6:54 PM 41.9 °F 35.4 °F 29.8 °F 62% 30.02 in 10.0 mi SW 11.5 mph 23.0 mph N/A   Overcast
7:15 PM 42.3 °F 34.1 °F 28.9 °F 59% 30.00 in 10.0 mi SSW 17.3 mph 27.6 mph N/A   Overcast
7:35 PM 42.3 °F 34.8 °F 29.5 °F 61% 29.99 in 10.0 mi SSW 15.0 mph 21.9 mph N/A   Overcast
7:54 PM 41.9 °F 34.6 °F 29.3 °F 61% 29.94 in 10.0 mi South 13.8 mph 23.0 mph N/A   Mostly Cloudy
8:15 PM 41.5 °F 35.4 °F 30.2 °F 64% 29.94 in 10.0 mi South 10.4 mph 20.7 mph N/A   Mostly Cloudy
8:35 PM 41.5 °F 34.6 °F 30.9 °F 66% 29.94 in 10.0 mi SSW 12.7 mph 19.6 mph N/A   Overcast
8:54 PM 41.9 °F 34.3 °F 30.9 °F 65% 29.92 in 10.0 mi SSW 15.0 mph 19.6 mph N/A   Overcast
9:15 PM 42.1 °F 34.9 °F 31.1 °F 65% 29.92 in 10.0 mi SSW 13.8 mph 19.6 mph N/A   Overcast
9:35 PM 41.9 °F 36.3 °F 31.8 °F 67% 29.91 in 10.0 mi SSW 9.2 mph 16.1 mph N/A   Overcast
9:54 PM 42.1 °F 36.6 °F 32.0 °F 67% 29.89 in 10.0 mi South 9.2 mph - N/A   Overcast
10:15 PM 43.2 °F 36.2 °F 32.9 °F 67% 29.87 in 10.0 mi South 13.8 mph 21.9 mph N/A   Overcast
10:34 PM 43.9 °F 37.5 °F 34.3 °F 69% 29.84 in 10.0 mi South 12.7 mph 19.6 mph N/A Rain Light Rain
10:54 PM 44.6 °F 38.4 °F 34.7 °F 68% 29.83 in 10.0 mi SSW 12.7 mph 18.4 mph N/A Rain Light Rain
11:15 PM 43.7 °F 35.4 °F 36.5 °F 76% 29.83 in 7.0 mi SW 19.6 mph 27.6 mph N/A Rain Rain
11:34 PM 42.8 °F 34.3 °F 38.5 °F 85% 29.82 in 3.0 mi SSW 19.6 mph 26.5 mph N/A   Overcast
11:54 PM 42.4 °F 33.1 °F 38.7 °F 86% 29.81 in 2.5 mi SW 23.0 mph 32.2 mph N/A   Overcast